TimeCST,TemperatureF,Dew PointF,Humidity,Sea Level PressureIn,VisibilityMPH,Wind Direction,Wind SpeedMPH,Gust SpeedMPH,PrecipitationIn,Events,Conditions,WindDirDegrees,DateUTC
12:10 AM,8.6,-2.2,62,30.61,10.0,North,8.1,-,N/A,,Clear,10,2013-12-07 06:10:00
12:30 AM,8.6,-2.2,62,30.61,10.0,North,6.9,-,N/A,,Clear,10,2013-12-07 06:30:00
12:50 AM,8.6,-2.2,62,30.62,10.0,North,6.9,-,N/A,,Clear,360,2013-12-07 06:50:00
1:10 AM,8.6,-2.2,62,30.63,10.0,NNW,4.6,-,N/A,,Clear,330,2013-12-07 07:10:00
1:30 AM,6.8,-2.2,67,30.63,10.0,NNW,4.6,-,N/A,,Clear,330,2013-12-07 07:30:00
1:50 AM,6.8,-2.2,67,30.62,10.0,North,6.9,-,N/A,,Clear,360,2013-12-07 07:50:00
2:10 AM,8.6,-2.2,62,30.62,10.0,North,8.1,-,N/A,,Clear,360,2013-12-07 08:10:00
2:30 AM,6.8,-2.2,67,30.62,10.0,North,6.9,-,N/A,,Clear,350,2013-12-07 08:30:00
2:50 AM,6.8,-2.2,67,30.63,10.0,North,8.1,-,N/A,,Clear,360,2013-12-07 08:50:00
3:10 AM,6.8,-2.2,67,30.63,10.0,North,8.1,-,N/A,,Clear,360,2013-12-07 09:10:00
3:30 AM,6.8,-2.2,67,30.62,10.0,North,6.9,-,N/A,,Clear,360,2013-12-07 09:30:00
3:50 AM,6.8,-2.2,67,30.62,10.0,North,6.9,-,N/A,,Clear,350,2013-12-07 09:50:00
4:10 AM,6.8,-2.2,67,30.62,10.0,North,8.1,-,N/A,,Clear,360,2013-12-07 10:10:00
4:30 AM,6.8,-2.2,67,30.62,10.0,North,8.1,-,N/A,,Clear,360,2013-12-07 10:30:00
4:50 AM,6.8,-2.2,67,30.62,10.0,North,8.1,-,N/A,,Clear,10,2013-12-07 10:50:00
5:10 AM,6.8,-2.2,67,30.61,10.0,NNE,8.1,-,N/A,,Clear,30,2013-12-07 11:10:00
5:30 AM,6.8,-2.2,67,30.61,10.0,NNE,10.4,-,N/A,,Clear,30,2013-12-07 11:30:00
5:50 AM,6.8,-2.2,67,30.60,10.0,NNE,12.7,-,N/A,,Clear,30,2013-12-07 11:50:00
6:10 AM,6.8,-2.2,67,30.60,10.0,NNE,10.4,-,N/A,,Clear,30,2013-12-07 12:10:00
6:30 AM,6.8,-2.2,67,30.61,10.0,NNE,9.2,-,N/A,,Clear,20,2013-12-07 12:30:00
6:50 AM,6.8,-2.2,67,30.61,10.0,NE,8.1,-,N/A,,Clear,40,2013-12-07 12:50:00
7:10 AM,6.8,-2.2,67,30.61,10.0,NE,9.2,-,N/A,,Clear,40,2013-12-07 13:10:00
7:30 AM,6.8,-2.2,67,30.60,10.0,NE,8.1,-,N/A,,Clear,40,2013-12-07 13:30:00
7:50 AM,5.0,-2.2,72,30.62,10.0,NNE,8.1,-,N/A,,Clear,20,2013-12-07 13:50:00
8:10 AM,6.8,-2.2,67,30.62,10.0,NNE,6.9,-,N/A,,Clear,20,2013-12-07 14:10:00
8:30 AM,6.8,-2.2,67,30.63,10.0,NNE,8.1,-,N/A,,Clear,30,2013-12-07 14:30:00
8:50 AM,8.6,-2.2,62,30.63,10.0,NE,8.1,-,N/A,,Clear,50,2013-12-07 14:50:00
9:10 AM,8.6,-2.2,62,30.62,10.0,ENE,9.2,-,N/A,,Clear,60,2013-12-07 15:10:00
9:30 AM,10.4,-0.4,62,30.63,10.0,NE,9.2,-,N/A,,Clear,50,2013-12-07 15:30:00
9:50 AM,10.4,-0.4,62,30.63,10.0,ENE,9.2,-,N/A,,Clear,70,2013-12-07 15:50:00
10:10 AM,10.4,-0.4,62,30.63,10.0,East,5.8,-,N/A,,Clear,80,2013-12-07 16:10:00
10:30 AM,14.0,-0.4,53,30.60,10.0,East,6.9,-,N/A,,Clear,100,2013-12-07 16:30:00
10:50 AM,14.0,-0.4,53,30.60,10.0,East,9.2,-,N/A,,Clear,100,2013-12-07 16:50:00
11:10 AM,14.0,-0.4,53,30.59,10.0,ESE,9.2,-,N/A,,Clear,110,2013-12-07 17:10:00
11:30 AM,15.8,-0.4,49,30.57,10.0,ENE,9.2,16.1,N/A,,Mostly Cloudy,70,2013-12-07 17:30:00
11:50 AM,15.8,-0.4,49,30.55,10.0,East,11.5,-,N/A,,Overcast,100,2013-12-07 17:50:00
12:10 PM,15.8,-0.4,49,30.54,10.0,ESE,6.9,-,N/A,,Overcast,110,2013-12-07 18:10:00
12:30 PM,17.6,-0.4,45,30.52,10.0,East,9.2,-,N/A,,Mostly Cloudy,100,2013-12-07 18:30:00
12:50 PM,17.6,-0.4,45,30.48,10.0,East,8.1,16.1,N/A,,Scattered Clouds,80,2013-12-07 18:50:00
1:10 PM,17.6,-0.4,45,30.45,10.0,East,11.5,19.6,N/A,,Mostly Cloudy,90,2013-12-07 19:10:00
1:30 PM,19.4,-0.4,42,30.44,10.0,East,11.5,16.1,N/A,,Scattered Clouds,90,2013-12-07 19:30:00
1:50 PM,17.6,-0.4,45,30.43,9.0,East,9.2,-,N/A,,Mostly Cloudy,100,2013-12-07 19:50:00
2:10 PM,19.4,-0.4,42,30.42,10.0,East,11.5,-,N/A,,Overcast,100,2013-12-07 20:10:00
2:30 PM,19.4,-0.4,42,30.43,10.0,ESE,8.1,-,N/A,,Overcast,110,2013-12-07 20:30:00
2:50 PM,19.4,-0.4,42,30.43,10.0,East,5.8,-,N/A,,Overcast,90,2013-12-07 20:50:00
3:10 PM,19.4,-0.4,42,30.42,10.0,ESE,4.6,-,N/A,,Overcast,120,2013-12-07 21:10:00
3:30 PM,19.4,-0.4,42,30.41,10.0,ESE,3.5,-,N/A,,Overcast,120,2013-12-07 21:30:00
3:50 PM,19.4,-0.4,42,30.41,10.0,East,4.6,-,N/A,,Overcast,80,2013-12-07 21:50:00
4:10 PM,21.2,-0.4,39,30.40,10.0,ESE,6.9,-,N/A,,Overcast,120,2013-12-07 22:10:00
4:30 PM,19.4,-0.4,42,30.40,10.0,ESE,6.9,-,N/A,,Overcast,120,2013-12-07 22:30:00
4:50 PM,19.4,-0.4,42,30.38,10.0,East,8.1,-,N/A,,Overcast,90,2013-12-07 22:50:00
5:10 PM,19.4,-0.4,42,30.36,10.0,East,9.2,-,N/A,,Overcast,90,2013-12-07 23:10:00
5:30 PM,19.4,-0.4,42,30.36,10.0,East,9.2,-,N/A,,Overcast,100,2013-12-07 23:30:00
5:50 PM,19.4,-0.4,42,30.35,10.0,ESE,10.4,-,N/A,,Overcast,110,2013-12-07 23:50:00
6:10 PM,19.4,-0.4,42,30.35,10.0,ESE,10.4,-,N/A,,Overcast,110,2013-12-08 00:10:00
6:30 PM,19.4,-0.4,42,30.34,10.0,ESE,8.1,-,N/A,,Overcast,110,2013-12-08 00:30:00
6:50 PM,19.4,-0.4,42,30.33,10.0,SE,11.5,-,N/A,,Overcast,130,2013-12-08 00:50:00
7:10 PM,19.4,-0.4,42,30.32,10.0,SE,11.5,-,N/A,,Overcast,130,2013-12-08 01:10:00
7:30 PM,19.4,-0.4,42,30.31,10.0,SE,12.7,-,N/A,,Overcast,130,2013-12-08 01:30:00
7:50 PM,19.4,-0.4,42,30.31,10.0,SE,12.7,-,N/A,,Overcast,130,2013-12-08 01:50:00
8:10 PM,19.4,-0.4,42,30.31,10.0,SE,10.4,-,N/A,,Overcast,130,2013-12-08 02:10:00
8:30 PM,19.4,1.4,46,30.29,10.0,SE,11.5,-,N/A,,Overcast,130,2013-12-08 02:30:00
8:50 PM,19.4,1.4,46,30.28,10.0,SE,10.4,-,N/A,,Overcast,130,2013-12-08 02:50:00
9:10 PM,19.4,1.4,46,30.28,10.0,SE,11.5,-,N/A,,Overcast,140,2013-12-08 03:10:00
9:30 PM,19.4,3.2,49,30.27,10.0,SE,11.5,-,N/A,,Overcast,130,2013-12-08 03:30:00
9:50 PM,19.4,3.2,49,30.27,10.0,SE,10.4,-,N/A,,Overcast,130,2013-12-08 03:50:00
10:10 PM,19.4,3.2,49,30.27,10.0,ESE,10.4,-,N/A,,Overcast,120,2013-12-08 04:10:00
10:30 PM,19.4,5.0,54,30.27,10.0,SE,8.1,-,N/A,,Overcast,140,2013-12-08 04:30:00
10:50 PM,19.4,5.0,54,30.26,10.0,SE,11.5,-,N/A,,Overcast,140,2013-12-08 04:50:00
11:10 PM,19.4,5.0,54,30.25,10.0,SE,11.5,-,N/A,,Overcast,140,2013-12-08 05:10:00
11:30 PM,19.4,5.0,54,30.24,10.0,SE,10.4,-,N/A,,Overcast,130,2013-12-08 05:30:00
11:50 PM,19.4,6.8,58,30.23,10.0,SE,11.5,-,N/A,,Overcast,140,2013-12-08 05:50:00